Latest Coastal Weather Observations for Browse Island

IDW60701

Issued at 11:35 am WST Sunday 23 November 2014 (issued every 10 minutes, with the page automatically refreshed every 10 minutes)

About coastal observations | Map of coastal stations | Coastal observations for WA | Marine services | Other Formats
Station Details ID: 200784 Name: BROWSE ISLAND Lat: -14.11 Lon: 123.55 Height: 3.7 m
Data from the previous 72 hours. | See also: Recent months for locations in Western Australia
Date/Time
WST
Temp

°C
Wind Pressure Rain
since 9am
mm
Weather Cloud Vis
km
Sea
Height
m
Swell
Dir
 
Speed
knots
Gust
knots
hPa Trend Height
m
Period
s
Dir
23/11:30am 31.0 SSW 3 4 1009.0 - - - - - - - - -
23/11:00am 31.4 W 3 - 1010.0 - - - - - - - - -
23/10:30am 31.0 SW 4 - 1010.0 - - - - - - - - -
23/10:00am 31.0 W 4 - 1010.5 - - - - - - - - -
23/09:30am 31.0 W 4 - 1010.0 - - - - - - - - -
23/09:00am 30.7 SSW 4 - 1010.5 - - - - - - - - -
23/08:30am 30.0 S 4 - 1010.0 - - - - - - - - -
23/08:00am 30.6 S 4 - 1010.6 - - - - - - - - -
23/07:30am 30.0 SSE 4 - 1010.0 - - - - - - - - -
23/07:00am 30.2 SE 5 - 1010.5 - - - - - - - - -
23/06:30am 30.0 SSE 6 - 1010.0 - - - - - - - - -
23/06:00am 29.6 SSE 5 - 1010.1 - - - - - - - - -
23/05:30am 29.0 S 4 - 1009.0 - - - - - - - - -
23/05:00am 29.5 S 3 - 1009.4 - - - - - - - - -
23/04:30am 30.0 SSW 4 - 1009.0 - - - - - - - - -
23/04:00am 29.7 WSW 4 - 1009.1 - - - - - - - - -
23/03:30am 30.0 SW 4 - 1009.0 - - - - - - - - -
23/03:00am 29.7 SW 1 - 1008.8 - - - - - - - - -
23/02:30am 30.0 CALM 0 - 1009.0 - - - - - - - - -
23/02:00am 29.8 SE 1 - 1009.4 - - - - - - - - -
23/01:30am 30.0 CALM 0 - 1009.0 - - - - - - - - -
23/01:00am 30.0 CALM 0 - 1009.6 - - - - - - - - -
23/12:30am 30.0 NW 4 - 1010.0 - - - - - - - - -
23/12:00am 30.3 NW 4 4 1010.3 - - - - - - - - -
 
Date/Time
WST
Temp

°C
Wind Pressure Rain
since 9am
mm
Weather Cloud Vis
km
Sea
Height
m
Swell
Dir
 
Speed
knots
Gust
knots
hPa Trend Height
m
Period
s
Dir
22/11:30pm 30.0 NW 3 - 1010.0 - - - - - - - - -
22/11:00pm 30.5 WNW 4 - 1010.6 - - - - - - - - -
22/10:30pm 31.0 W 5 - 1010.0 - - - - - - - - -
22/10:00pm 30.4 W 5 - 1010.7 - - - - - - - - -
22/09:30pm 30.0 W 5 - 1010.0 - - - - - - - - -
22/09:00pm 30.4 W 6 - 1010.6 - - - - - - - - -
22/08:30pm 31.0 W 5 - 1010.0 - - - - - - - - -
22/08:00pm 30.6 W 5 - 1010.5 - - - - - - - - -
22/07:30pm 30.0 W 4 - 1010.0 - - - - - - - - -
22/07:00pm 30.7 W 5 - 1009.9 - - - - - - - - -
22/06:30pm 31.0 W 5 - 1009.0 - - - - - - - - -
22/06:00pm 30.9 W 4 - 1008.9 - - - - - - - - -
22/05:30pm 31.0 W 4 - 1008.0 - - - - - - - - -
22/05:00pm 31.3 W 5 - 1008.1 - - - - - - - - -
22/04:30pm 32.0 WSW 6 - 1008.0 - - - - - - - - -
22/04:00pm 31.8 WSW 5 - 1007.9 - - - - - - - - -
22/03:30pm 31.0 WSW 6 - 1008.0 - - - - - - - - -
22/03:00pm 31.5 WSW 5 - 1008.3 - - - - - - - - -
22/02:30pm 33.0 SW 5 - 1008.0 - - - - - - - - -
22/02:00pm 31.7 SW 5 - 1009.0 - - - - - - - - -
22/01:30pm 31.0 WSW 6 - 1009.0 - - - - - - - - -
22/01:00pm 31.1 WSW 6 - 1009.3 - - - - - - - - -
22/12:30pm 32.0 WSW 4 - 1009.0 - - - - - - - - -
22/12:00pm 31.6 WSW 4 - 1010.2 - - - - - - - - -
22/11:30am 31.0 W 4 - 1010.0 - - - - - - - - -
22/11:00am 31.4 WNW 4 - 1010.7 - - - - - - - - -
22/10:30am 31.0 W 4 - 1011.0 - - - - - - - - -
22/10:00am 31.6 W 3 - 1011.3 - - - - - - - - -
22/09:30am 31.0 W 4 - 1011.0 - - - - - - - - -
22/09:00am 30.8 W 4 - 1011.4 - - - - - - - - -
22/08:30am 31.0 WNW 3 - 1011.0 - - - - - - - - -
22/08:00am 30.6 W 3 - 1011.1 - - - - - - - - -
22/07:30am 30.0 WNW 3 - 1010.0 - - - - - - - - -
22/07:00am 30.2 W 3 - 1010.6 - - - - - - - - -
22/06:30am 30.0 WSW 3 - 1010.0 - - - - - - - - -
22/06:00am 29.6 SW 4 - 1009.9 - - - - - - - - -
22/05:30am 30.0 WSW 6 - 1009.0 - - - - - - - - -
22/05:00am 29.4 WSW 5 - 1009.1 - - - - - - - - -
22/04:30am 29.0 SW 3 - 1009.0 - - - - - - - - -
22/04:00am 29.4 SW 4 - 1008.6 - - - - - - - - -
22/03:30am 30.0 SW 4 - 1008.0 - - - - - - - - -
22/03:00am 29.6 CALM 0 - 1008.4 - - - - - - - - -
22/02:30am 30.0 SW 1 - 1008.0 - - - - - - - - -
22/02:00am 29.5 SSW 5 - 1008.2 - - - - - - - - -
22/01:30am 30.0 SSW 4 - 1008.0 - - - - - - - - -
22/01:00am 29.6 W 3 - 1008.2 - - - - - - - - -
22/12:30am 30.0 S 4 - 1008.0 - - - - - - - - -
22/12:00am 29.7 S 5 - 1009.1 - - - - - - - - -
 
Date/Time
WST
Temp

°C
Wind Pressure Rain
since 9am
mm
Weather Cloud Vis
km
Sea
Height
m
Swell
Dir
 
Speed
knots
Gust
knots
hPa Trend Height
m
Period
s
Dir
21/11:30pm 30.0 S 6 - 1009.0 - - - - - - - - -
21/11:00pm 30.2 S 8 - 1009.6 - - - - - - - - -
21/10:30pm 30.0 S 7 - 1010.0 - - - - - - - - -
21/10:00pm 30.2 S 7 - 1009.9 - - - - - - - - -
21/09:30pm 30.0 SSW 6 - 1010.0 - - - - - - - - -
21/09:00pm 30.4 SSW 8 - 1010.0 - - - - - - - - -
21/08:30pm 31.0 SSW 8 - 1010.0 - - - - - - - - -
21/08:00pm 30.6 SW 8 - 1010.1 - - - - - - - - -
21/07:30pm 31.0 SW 9 - 1009.0 - - - - - - - - -
21/07:00pm 30.5 SW 10 - 1009.1 - - - - - - - - -
21/06:30pm 31.0 WSW 10 - 1008.0 - - - - - - - - -
21/06:00pm 30.7 SW 11 - 1008.2 - - - - - - - - -
21/05:30pm 31.0 SW 11 - 1008.0 - - - - - - - - -
21/05:00pm 31.0 WSW 11 - 1007.8 - - - - - - - - -
21/04:30pm 31.0 WSW 10 - 1007.0 - - - - - - - - -
21/04:00pm 31.1 SW 11 - 1007.4 - - - - - - - - -
21/03:30pm 31.0 SW 11 - 1007.0 - - - - - - - - -
21/03:00pm 31.1 SW 11 - 1007.7 - - - - - - - - -
21/02:30pm 31.0 SW 10 - 1008.0 - - - - - - - - -
21/02:00pm 30.8 WSW 10 - 1008.5 - - - - - - - - -
21/01:30pm 31.0 WSW 10 - 1008.0 - - - - - - - - -
21/01:00pm 30.8 WSW 9 - 1009.1 - - - - - - - - -
21/12:30pm 31.0 WSW 8 - 1009.0 - - - - - - - - -
21/12:00pm 30.9 WSW 7 - 1010.1 - - - - - - - - -
21/11:30am 31.0 W 7 - 1010.0 - - - - - - - - -
21/11:00am 31.0 W 6 - 1010.7 - - - - - - - - -
21/10:30am 31.0 W 6 - 1011.0 - - - - - - - - -
21/10:00am 31.3 WSW 5 - 1011.0 - - - - - - - - -
21/09:30am 31.0 W 5 - 1011.0 - - - - - - - - -
21/09:00am 30.6 WNW 5 - 1011.3 - - - - - - - - -
21/08:30am 31.0 NW 7 - 1011.0 - - - - - - - - -
21/08:00am 30.8 NW 6 - 1011.2 - - - - - - - - -
21/07:30am 30.0 WNW 5 - 1011.0 - - - - - - - - -
21/07:00am 30.4 CALM 0 - 1010.8 - - - - - - - - -
21/06:30am 30.0 CALM 0 - 1010.0 - - - - - - - - -
21/06:00am 29.8 CALM 0 - 1010.3 - - - - - - - - -
21/05:30am 30.0 NW 1 - 1010.0 - - - - - - - - -
21/05:00am 29.7 CALM 0 - 1009.5 - - - - - - - - -
21/04:30am 30.0 CALM 0 - 1009.0 - - - - - - - - -
21/04:00am 29.8 WNW 3 - 1008.9 - - - - - - - - -
21/03:30am 30.0 W 4 - 1008.0 - - - - - - - - -
21/03:00am 29.9 WNW 6 - 1008.4 - - - - - - - - -
21/02:30am 30.0 WNW 6 - 1008.0 - - - - - - - - -
21/02:00am 30.0 WNW 6 - 1008.5 - - - - - - - - -
21/01:30am 30.0 W 6 - 1008.0 - - - - - - - - -
21/01:00am 29.9 W 7 - 1008.8 - - - - - - - - -
21/12:30am 30.0 WSW 8 - 1009.0 - - - - - - - - -
21/12:00am 30.1 WSW 9 - 1009.1 - - - - - - - - -
 
Date/Time
WST
Temp

°C
Wind Pressure Rain
since 9am
mm
Weather Cloud Vis
km
Sea
Height
m
Swell
Dir
 
Speed
knots
Gust
knots
hPa Trend Height
m
Period
s
Dir
20/11:30pm 30.0 WSW 11 - 1009.0 - - - - - - - - -
20/11:00pm 30.0 WSW 11 - 1009.8 - - - - - - - - -
20/10:30pm 30.0 WSW 10 - 1010.0 - - - - - - - - -
20/10:00pm 29.8 WSW 9 - 1010.4 - - - - - - - - -
20/09:30pm 30.0 W 9 - 1010.0 - - - - - - - - -
20/09:00pm 29.8 WSW 9 - 1010.0 - - - - - - - - -
20/08:30pm 30.0 W 8 - 1010.0 - - - - - - - - -
20/08:00pm 29.8 W 7 - 1010.0 - - - - - - - - -
20/07:30pm 30.0 WSW 7 - 1010.0 - - - - - - - - -
20/07:00pm 29.9 WSW 7 - 1009.6 - - - - - - - - -
20/06:30pm 30.0 WSW 8 - 1009.0 - - - - - - - - -
20/06:00pm 29.7 WSW 7 - 1008.9 - - - - - - - - -
20/05:30pm 30.0 WSW 7 - 1008.0 - - - - - - - - -
20/05:00pm 29.9 WSW 7 - 1008.5 - - - - - - - - -
20/04:30pm 30.0 SW 7 - 1008.0 - - - - - - - - -
20/04:00pm 30.0 SW 7 - 1008.2 - - - - - - - - -
20/03:30pm 30.0 SW 7 - 1008.0 - - - - - - - - -
20/03:00pm 30.4 SSW 7 - 1008.4 - - - - - - - - -
20/02:30pm 30.0 SSW 7 - 1008.0 - - - - - - - - -
20/02:00pm 30.3 SSW 7 - 1008.9 - - - - - - - - -
20/01:30pm 30.0 SSW 8 - 1009.0 - - - - - - - - -
20/01:00pm 30.2 SSW 7 - 1009.5 - - - - - - - - -
20/12:30pm 30.0 SSW 7 - 1009.0 - - - - - - - - -
20/12:00pm 30.4 SSW 7 - 1010.2 - - - - - - - - -

Other Formats:

Comma delimited format used in spreadsheet applications
http://www.bom.gov.au/fwo/IDW60701/IDW60701.94103.axf

JavaScript Object Notation format (JSON) in row-major order
http://www.bom.gov.au/fwo/IDW60701/IDW60701.94103.json